User: anonymous
Location: Goheenville
(40.9070°N, 79.3720°W)
Time: 04:44:49
(UTC-04:00)
Language:

Cosmos 1727 Rocket - Orbit

View from above orbital plane
View from above orbital plane
View from above satellite
View from above satellite

Ground track
Ground track

The orbit data is extracted from the following two-line orbital elements,

1 16511U 86008B   14105.85669172  .00000069  00000-0  56338-4 0  4822
2 16511 082.9474 358.8930 0022801 278.3948 130.0036 13.75757979417005
Epoch (UTC): 15 April 2014 20:33:38
Eccentricity: 0.0022801
inclination: 82.9474°
perigee height: 962 km
apogee height: 996 km
right ascension of ascending node: 358.8930°
argument of perigee: 278.3948°
revolutions per day: 13.75757979
mean anomaly at epoch: 130.0036°
orbit number at epoch: 41700

The dashed part of the orbit path shows where the satellite is in the earth's shadow,  

DLR